When you browse on this site, cookies collect data to enhance your experience and personalize the content and advertising you see.
Visit our Privacy Policy to learn more. By continuing to use the site, you agree to this use of cookies and data.
  • In Portugal
  • List of Countries
  • For 7 days
  • Water Temperature
  • Satellite Maps
  • Weather Map
  • Weather Widgets
  • user-avatar
    Login

    Hourly Weather Sudoly

    Today, 10 December, Monday

    Time Temperature Precipitation Wind Pressure Humidity
    00:00 +2°C° 0 mm 5 mps 736 mmHg 87%
    01:00 +1°C° 0 mm 4 mps 736 mmHg 89%
    02:00 +3°C° 0.1 mm 4 mps 736 mmHg 89%
    03:00 +3°C° 0.1 mm 4 mps 736 mmHg 89%
    04:00 +2°C° 0.1 mm 5 mps 736 mmHg 89%
    05:00 +2°C° 0.1 mm 5 mps 736 mmHg 87%
    06:00 +2°C° 0.1 mm 5 mps 737 mmHg 86%
    07:00 +2°C° 0 mm 5 mps 737 mmHg 85%
    08:00 +2°C° 0.2 mm 5 mps 738 mmHg 82%
    09:00 +2°C° 0.2 mm 6 mps 738 mmHg 79%
    10:00 +3°C° 0.2 mm 6 mps 739 mmHg 77%
    11:00 +3°C° 0.2 mm 6 mps 739 mmHg 75%
    12:00 +3°C° 0.2 mm 6 mps 740 mmHg 72%
    13:00 +3°C° 0.2 mm 6 mps 740 mmHg 70%
    14:00 +2°C° 0.1 mm 5 mps 740 mmHg 72%
    15:00 +3°C° 0.1 mm 4 mps 741 mmHg 74%
    16:00 +1°C° 0.1 mm 4 mps 741 mmHg 75%
    17:00 +1°C° 0 mm 4 mps 742 mmHg 78%
    18:00 0°C° 0 mm 4 mps 742 mmHg 80%
    19:00 0°C° 0 mm 4 mps 742 mmHg 83%
    20:00 0°C° 0 mm 4 mps 742 mmHg 84%
    21:00 -1°C° 0 mm 4 mps 742 mmHg 86%
    22:00 -1°C° 0 mm 4 mps 743 mmHg 88%
    23:00 -1°C° 0 mm 4 mps 743 mmHg 88%

    Tomorrow, 11 December, Tuesday

    Time Temperature Precipitation Wind Pressure Humidity
    00:00 0°C° 0 mm 3 mps 743 mmHg 89%
    01:00 0°C° 0 mm 3 mps 743 mmHg 90%
    02:00 -1°C° 0 mm 3 mps 743 mmHg 90%
    03:00 -1°C° 0 mm 3 mps 743 mmHg 91%
    04:00 -1°C° 0 mm 3 mps 743 mmHg 92%
    05:00 -1°C° 0 mm 3 mps 743 mmHg 92%
    06:00 -1°C° 0 mm 3 mps 743 mmHg 92%
    07:00 -1°C° 0 mm 2 mps 744 mmHg 92%
    08:00 -1°C° 0 mm 3 mps 744 mmHg 88%
    09:00 0°C° 0 mm 3 mps 744 mmHg 84%
    10:00 +1°C° 0 mm 3 mps 744 mmHg 79%
    11:00 +1°C° 0 mm 3 mps 744 mmHg 77%
    12:00 +2°C° 0 mm 3 mps 744 mmHg 74%
    13:00 +2°C° 0 mm 3 mps 744 mmHg 72%
    14:00 +1°C° 0 mm 3 mps 744 mmHg 76%
    15:00 +2°C° 0 mm 2 mps 744 mmHg 80%
    16:00 +1°C° 0 mm 2 mps 744 mmHg 84%
    17:00 +1°C° 0 mm 2 mps 744 mmHg 85%
    18:00 -1°C° 0 mm 2 mps 744 mmHg 86%
    19:00 -1°C° 0 mm 2 mps 745 mmHg 86%
    20:00 -1°C° 0 mm 2 mps 745 mmHg 87%
    21:00 -1°C° 0 mm 2 mps 745 mmHg 88%
    22:00 -1°C° 0 mm 2 mps 745 mmHg 88%
    23:00 -1°C° 0 mm 2 mps 745 mmHg 88%

    Day after tomorrow, 12 December, Wednesday

    Time Temperature Precipitation Wind Pressure Humidity
    00:00 -2°C° 0 mm 2 mps 746 mmHg 88%
    01:00 -2°C° 0 mm 2 mps 746 mmHg 88%
    02:00 -2°C° 0 mm 2 mps 746 mmHg 88%
    03:00 0°C° 0 mm 1 mps 746 mmHg 89%
    04:00 0°C° 0 mm 1 mps 746 mmHg 89%
    05:00 0°C° 0 mm 1 mps 747 mmHg 89%
    06:00 0°C° 0 mm 1 mps 747 mmHg 88%
    07:00 0°C° 0 mm 1 mps 747 mmHg 88%
    08:00 +1°C° 0 mm 1 mps 748 mmHg 86%
    09:00 +1°C° 0 mm 1 mps 748 mmHg 83%
    10:00 +2°C° 0 mm 1 mps 748 mmHg 80%
    11:00 +1°C° 0 mm 2 mps 748 mmHg 79%
    12:00 +1°C° 0 mm 2 mps 748 mmHg 78%
    13:00 +2°C° 0 mm 2 mps 748 mmHg 77%
    14:00 +1°C° 0 mm 2 mps 748 mmHg 81%
    15:00 -1°C° 0 mm 2 mps 748 mmHg 85%
    16:00 -1°C° 0 mm 2 mps 748 mmHg 89%
    17:00 -2°C° 0 mm 2 mps 748 mmHg 90%
    18:00 -2°C° 0 mm 3 mps 748 mmHg 90%
    19:00 -2°C° 0 mm 3 mps 749 mmHg 91%
    20:00 -2°C° 0.1 mm 3 mps 748 mmHg 90%
    21:00 -3°C° 0.1 mm 4 mps 748 mmHg 90%
    22:00 -3°C° 0.1 mm 4 mps 748 mmHg 90%
    23:00 -3°C° 0.3 mm 4 mps 748 mmHg 90%

    13 December, Thursday

    Time Temperature Precipitation Wind Pressure Humidity
    00:00 -3°C° 0.3 mm 4 mps 748 mmHg 90%
    01:00 -2°C° 0.3 mm 5 mps 748 mmHg 90%
    02:00 -4°C° 0.4 mm 5 mps 748 mmHg 90%
    03:00 -4°C° 0.4 mm 5 mps 747 mmHg 90%
    04:00 -4°C° 0.4 mm 5 mps 747 mmHg 91%
    05:00 -4°C° 0.4 mm 5 mps 747 mmHg 91%
    06:00 -4°C° 0.4 mm 5 mps 747 mmHg 91%
    07:00 -4°C° 0.4 mm 5 mps 747 mmHg 91%
    08:00 -2°C° 0.4 mm 4 mps 747 mmHg 91%
    09:00 -2°C° 0.4 mm 4 mps 747 mmHg 91%
    10:00 -2°C° 0.4 mm 4 mps 747 mmHg 90%
    11:00 -2°C° 0.3 mm 4 mps 746 mmHg 90%
    12:00 -2°C° 0.3 mm 4 mps 746 mmHg 90%
    13:00 -2°C° 0.3 mm 4 mps 746 mmHg 90%
    14:00 -2°C° 0.3 mm 4 mps 746 mmHg 91%
    15:00 -1°C° 0.3 mm 3 mps 747 mmHg 92%
    16:00 -1°C° 0.3 mm 3 mps 747 mmHg 93%
    17:00 -1°C° 0.2 mm 3 mps 747 mmHg 94%
    18:00 -1°C° 0.2 mm 3 mps 747 mmHg 94%
    19:00 -1°C° 0.2 mm 3 mps 748 mmHg 95%
    20:00 -1°C° 0.2 mm 3 mps 748 mmHg 95%
    21:00 -1°C° 0.2 mm 2 mps 748 mmHg 95%
    22:00 -1°C° 0.2 mm 2 mps 749 mmHg 95%
    23:00 -1°C° 0.1 mm 2 mps 749 mmHg 96%

    14 December, Friday

    Time Temperature Precipitation Wind Pressure Humidity
    00:00 -2°C° 0.1 mm 2 mps 749 mmHg 96%
    01:00 -2°C° 0.1 mm 2 mps 750 mmHg 96%
    02:00 -2°C° 0.1 mm 2 mps 750 mmHg 96%
    03:00 -2°C° 0.1 mm 2 mps 750 mmHg 96%
    04:00 -2°C° 0.1 mm 2 mps 751 mmHg 96%
    05:00 -2°C° 0 mm 2 mps 751 mmHg 96%
    06:00 -2°C° 0 mm 2 mps 751 mmHg 96%
    07:00 0°C° 0 mm 1 mps 752 mmHg 97%
    08:00 0°C° 0 mm 1 mps 752 mmHg 96%
    09:00 +1°C° 0 mm 1 mps 753 mmHg 95%
    10:00 +1°C° 0 mm 1 mps 754 mmHg 95%
    11:00 +1°C° 0 mm 1 mps 754 mmHg 94%
    12:00 +2°C° 0 mm 1 mps 754 mmHg 94%
    13:00 +2°C° 0 mm 1 mps 755 mmHg 94%
    14:00 +2°C° 0 mm 1 mps 755 mmHg 94%
    15:00 +1°C° 0 mm 1 mps 755 mmHg 94%
    16:00 +1°C° 0 mm 1 mps 756 mmHg 94%
    17:00 +1°C° 0 mm 1 mps 756 mmHg 94%
    18:00 +1°C° 0 mm 1 mps 757 mmHg 94%
    19:00 +1°C° 0 mm 1 mps 757 mmHg 94%
    20:00 +1°C° 0 mm 1 mps 757 mmHg 94%
    21:00 0°C° 0 mm 1 mps 758 mmHg 94%
    22:00 0°C° 0 mm 1 mps 758 mmHg 94%
    23:00 0°C° 0 mm 1 mps 758 mmHg 94%

    15 December, Saturday

    Time Temperature Precipitation Wind Pressure Humidity
    00:00 0°C° 0 mm 1 mps 758 mmHg 95%
    01:00 0°C° 0 mm 1 mps 759 mmHg 95%
    02:00 -1°C° 0 mm 1 mps 759 mmHg 95%
    03:00 -1°C° 0 mm 1 mps 759 mmHg 95%
    04:00 -1°C° 0 mm 1 mps 759 mmHg 96%
    05:00 -1°C° 0 mm 1 mps 760 mmHg 96%
    06:00 -1°C° 0 mm 1 mps 760 mmHg 96%
    07:00 0°C° 0 mm 1 mps 760 mmHg 96%
    08:00 0°C° 0 mm 1 mps 761 mmHg 95%
    09:00 0°C° 0 mm 1 mps 761 mmHg 94%
    10:00 +1°C° 0 mm 1 mps 761 mmHg 93%
    11:00 +1°C° 0 mm 1 mps 761 mmHg 92%
    12:00 +1°C° 0 mm 1 mps 761 mmHg 91%
    13:00 +2°C° 0 mm 1 mps 761 mmHg 90%
    14:00 -1°C° 0 mm 2 mps 761 mmHg 91%
    15:00 -2°C° 0 mm 2 mps 761 mmHg 92%
    16:00 -2°C° 0 mm 2 mps 762 mmHg 93%
    17:00 -2°C° 0 mm 2 mps 762 mmHg 94%
    18:00 -3°C° 0 mm 2 mps 762 mmHg 94%
    19:00 -3°C° 0 mm 2 mps 762 mmHg 95%
    20:00 -3°C° 0 mm 2 mps 762 mmHg 94%
    21:00 -3°C° 0 mm 2 mps 762 mmHg 93%
    22:00 -3°C° 0 mm 2 mps 762 mmHg 92%
    23:00 -3°C° 0 mm 2 mps 762 mmHg 92%
    Show more